• MPC Preparation (Info)

  • MPEC 2013-E49 : 2013 EA29

    The following Minor Planet Electronic Circular may be linked-to from your own Web pages, but must not otherwise be redistributed electronically.

    A form allowing access to any MPEC is at the bottom of this page.


    Read MPEC 2013-E48 Read MPEC 2013-E50


    M.P.E.C. 2013-E49                                Issued 2013 Mar. 11, 11:53 UT
    
         The Minor Planet Electronic Circulars contain information on unusual
             minor planets and routine data on comets.  They are published
       on behalf of Commission 20 of the International Astronomical Union by the
              Minor Planet Center, Smithsonian Astrophysical Observatory,
                              Cambridge, MA 02138, U.S.A.
    
                 Prepared using the Tamkin Foundation Computer Network
    
                                  MPC@CFA.HARVARD.EDU
                URL https://www.minorplanetcenter.net/    ISSN 1523-6714
    
                                       2013 EA29
    
    Observations:
         K13E29A* C2013 03 05.40854 10 38 22.946+01 00 14.41         21.6 wLEE049F51
         K13E29A  C2013 03 05.43846 10 38 25.664+01 00 57.04         21.5 wLEE049F51
         K13E29A  C2013 03 05.45341 10 38 27.020+01 01 18.42         21.7 wLEE049F51
         K13E29A  C2013 03 11.28530 11 14 04.41 +07 13 39.0          19.7 VuEE049703
         K13E29A  C2013 03 11.29316 11 14 11.22 +07 14 56.7          19.4 VuEE049703
         K13E29A  C2013 03 11.29713 11 14 14.67 +07 15 37.5          19.2 VuEE049703
         K13E29A  C2013 03 11.32231 11 14 36.67 +07 19 48.3          19.2 VuEE049703
         K13E29A  C2013 03 11.32773 11 14 41.38 +07 20 42.3          18.7 VuEE049703
         K13E29A  C2013 03 11.33314 11 14 46.17 +07 21 38.0          18.9 VuEE049703
         K13E29A  C2013 03 11.33854 11 14 50.96 +07 22 32.1          19.3 VuEE049703
         K13E29A  C2013 03 11.44715 11 16 32.12 +07 41 17.7          19.5 VuEE049703
         K13E29A  C2013 03 11.45955 11 16 44.40 +07 43 27.9          18.9 VuEE049703
         K13E29A  C2013 03 11.46576 11 16 50.55 +07 44 34.0          19.5 VuEE049703
    
    Observer details:
    703 Catalina Sky Survey.  Observer J. A. Johnson.  Measurers A. Boattini,
        E. J. Christensen, A. R. Gibbs, A. D. Grauer, R. E. Hill, J. A. Johnson,
        R. A. Kowalski, S. M. Larson, R. H. McNaught, F. C. Shelly.  0.68-m
        Schmidt + CCD.
    F51 Pan-STARRS 1, Haleakala.  Observers N. Primak, A. Schultz, S. Watters,
        T. Goggia.  Measurer PS1 Science Consortium.  1.8-m Ritchey-Chretien
        + CCD.
    
    Orbital elements:
    2013 EA29                                                Earth MOID = 0.0079 AU
    Epoch 2013 Apr. 18.0 TT = JDT 2456400.5                 MPC
    M 358.31781              (2000.0)            P               Q
    n   0.33706312     Peri.   61.50001     -0.62374835     +0.78144630
    a   2.0448521      Node   169.85832     -0.74622722     -0.58899807
    e   0.5951146      Incl.    5.44983     -0.23255738     -0.20596833
    P   2.92           H   26.3           G   0.15           U   7
    Residuals in seconds of arc
    130305 F51  0.0   0.0     130311 703  0.2+  0.9+    130311 703  0.1+  1.1+
    130305 F51  0.1+  0.0     130311 703  0.6+  0.2-    130311 703  0.4+  0.4-
    130305 F51  0.1-  0.0     130311 703  0.3-  0.7-    130311 703  0.4-  0.6-
    130311 703  0.3-  0.1-    130311 703  0.2-  0.4+
    130311 703  0.0   0.4-    130311 703  0.2-  0.1-
    
    Ephemeris:
    2013 EA29                a,e,i = 2.04, 0.60, 5                   q = 0.8279
    Date    TT    R. A. (2000) Decl.     Delta      r     Elong.  Phase     V
    2013 02 09    10 23 38.2 -00 34 52   0.3097  1.2818   159.8    15.4    25.1
    ...
    2013 02 24    10 28 20.5 -00 39 20   0.1623  1.1498   169.8     8.8    23.3
    ...
    2013 03 04    10 35 39.3 +00 32 07   0.09136 1.0821   171.7     7.6    21.8
    ...
    2013 03 10    10 58 47.2 +04 37 15   0.04058 1.0335   174.4     5.3    19.9
    2013 03 11    11 09 46.5 +06 31 48   0.03240 1.0257   175.4     4.5    19.3
    2013 03 12    11 28 16.2 +09 40 03   0.02442 1.0180   173.7     6.1    18.8
    ...
    2013 03 18    21 16 21.8 +12 55 36   0.02921 0.9733    40.7   138.2    25.2
    ...
    2013 03 26    22 00 44.8 +05 43 45   0.09603 0.9203    34.8   141.8    28.1
    ...
    2013 04 10    22 21 33.3 +03 55 52   0.2290  0.8492    43.1   126.3    28.1
    
    A. U. Tomatic                (C) Copyright 2013 MPC           M.P.E.C. 2013-E49
    

    Read MPEC 2013-E48 Read MPEC 2013-E50


    MPEC number:

    Enter an MPEC number in one of the following forms:

    • 1997-B01 (the full form)
    • J97B01 (the packed version of the full form)
    • B01 (the abbreviated form)